Skip Page Navigation
NASA JPL Caltech
NASA Logo - Jet Propulsion Laboratory + View the NASA Portal
+ Near-Earth Object (NEO) Program
Search JPL
JPL Home Earth Solar System Stars & Galaxies Technology
JPL Solar System Dynamics
BODIES ORBITS EPHEMERIDES TOOLS PHYSICAL DATA DISCOVERY FAQ SITE MAP
JPL Small-Body Database Browser
Search: [ help ]  
31044 (1996 NY)
Classification: Main-belt Asteroid          SPK-ID: 2031044
Ephemeris | Orbit Diagram | Orbital Elements | Physical Parameters | Discovery Circumstances ]

[ show orbit diagram ]
Orbital Elements at Epoch 2457000.5 (2014-Dec-09.0) TDB
Reference: JPL 11 (heliocentric ecliptic J2000)
 Element Value Uncertainty (1-sigma)   Units 
e .2506251647654471 6.416e-08  
a 2.420307615457067 2.927e-08 AU
q 1.813717620550073 1.5796e-07 AU
i 13.55309609422519 7.3109e-06 deg
node 88.86714002264007 3.1017e-05 deg
peri 235.5208660587041 3.8514e-05 deg
M 297.779535525097 3.4601e-05 deg
tp 2457238.203198650852
(2015-Aug-03.70319865)
0.00013559 JED
period 1375.321644357432
3.77
2.4948e-05
6.83e-08
d
yr
n .2617569508027315 4.7483e-09 deg/d
Q 3.026897610364061 3.6605e-08 AU
  Orbit Determination Parameters
   # obs. used (total)      914  
   data-arc span      7460 days (20.42 yr)  
   first obs. used      1994-01-17  
   last obs. used      2014-06-21  
   planetary ephem.      DE431  
   SB-pert. ephem.      SB431-BIG16  
   condition code      0  
   fit RMS      .50323  
   data source      ORB  
   producer      Otto Matic  
   solution date      2014-Sep-12 14:27:48  

Additional Information
 Earth MOID = .837809 AU 
 T_jup = 3.434 
[ show covariance matrix ]

Ephemeris | Orbit Diagram | Orbital Elements | Physical Parameters | Discovery Circumstances ]

Physical Parameter Table
Parameter Symbol Value Units Sigma Reference Notes
absolute magnitude H 13.4 mag n/a MPO263607  

31044 (1996 NY)          Discovered 1996-Jul-11 by McNaught, R. H. at Siding Spring (413)
Reference: 20011130/Numbers.arcLast Updated: 2004-04-19

Alternate Designations
 1996 NY = 2000 PS5 
Ephemeris | Orbit Diagram | Orbital Elements | Physical Parameters | Discovery Circumstances ]
ABOUT SSD CREDITS/AWARDS PRIVACY/COPYRIGHT GLOSSARY LINKS
FirstGov 2014-Oct-01 10:19 UT
(server date/time)  
NASA Home Page
Site Manager:   Donald K. Yeomans
Webmaster  Alan B. Chamberlin